CAPE
0 0 0 0 0 6 28 97 241 132 454 681 652 434 262 232 45 25 51 50 44 66 95 18 15 18 73 379 824 1322 1522 2028 1791 1764 1521 1979 1537 2656 2470 533 899 2462 2368 1956
0 0 0 0 0 0 6 43 148 8 5 81 620 518 501 392 190 124 124 42 70 54 71 25 27 16 30 368 817 1579 1927 2107 2350 1898 2431 2103 1657 2034 2183 1879 2615 2558 2425 2234
0 0 0 0 0 0 0 2 139 127 43 3 124 280 514 376 739 423 237 167 82 85 47 49 128 56 30 294 750 1389 2125 1939 2185 2645 2098 265 370 189 712 2423 2389 2392 2277 2358
0 0 0 0 0 0 0 62 66 79 0 103 232 571 606 693 651 644 504 280 178 114 91 127 128 87 27 132 393 1369 2154 1795 1554 2632 2227 1918 876 886 1709 2270 1299 2397 2657 2457
0 0 0 0 0 0 0 146 7 35 22 27 14 352 106 0 543 670 678 499 167 95 83 130 189 221 116 147 140 1146 1812 2304 1654 2219 2560 2261 2037 832 318 1087 1759 2265 2839 2661
0 0 0 0 0 0 10 17 63 32 5 19 0 21 391 9 10 544 587 450 414 410 80 212 223 146 178 11 51 917 1849 2385 2721 2345 2445 2028 1741 509 1141 2115 2642 2110 2295 2482
0 0 0 0 0 0 0 1 106 62 0 3 37 66 275 3 24 1 875 712 615 608 592 126 207 232 242 15 222 1087 1871 2241 2244 2360 2367 2545 1904 2101 794 1331 521 1213 664 1763
0 30 0 0 0 0 0 23 99 53 31 11 1 258 69 0 241 105 735 563 207 89 794 356 238 563 568 347 257 896 1904 2310 2275 2377 2676 3128 3055 2451 1859 2225 1968 926 1795 1568
17 52 0 21 28 49 6 0 54 73 38 65 224 68 86 222 293 375 420 610 801 435 775 1049 604 656 750 404 211 708 1921 2392 2471 2305 2831 3142 3221 2963 1947 2765 3297 2600 2226 794
42 68 49 0 0 0 5 7 5 29 88 114 280 174 287 323 382 263 220 145 300 356 868 757 313 463 674 720 405 1151 1758 2310 2720 2458 2554 2753 2957 3166 3265 3344 2244 3102 1870 367
1 19 0 0 0 0 0 0 0 22 63 90 189 201 274 242 307 214 149 164 101 31 58 122 157 75 551 233 49 62 489 2180 2623 2790 2801 2670 2644 2873 3179 3092 3231 2824 2584 1131
31 13 12 0 0 0 1 32 27 8 45 151 241 151 74 164 234 132 32 35 4 0 0 6 5 57 78 2 88 257 253 469 1692 2579 2958 2907 2806 2779 2901 3003 2987 3334 3288 3045
0 11 84 1 0 0 0 0 2 5 31 214 43 176 181 296 183 43 5 2 0 6 0 3 3 4 10 16 0 24 13 131 179 1627 2641 2712 2672 2844 2898 3163 2939 3295 3241 3109
0 0 21 4 25 0 0 0 0 0 0 56 265 302 250 156 135 51 3 0 0 3 5 0 0 0 0 1 6 10 20 35 54 93 1172 1026 2422 2446 2608 3138 3048 3012 3244 3009
0 0 0 1 0 0 0 0 0 0 0 383 437 309 292 104 43 29 8 6 3 2 3 3 3 0 0 0 0 7 4 8 7 9 18 304 354 1893 3164 2999 2826 2853 3345 2961
0 0 0 0 0 0 0 0 0 0 0 168 254 148 119 35 34 23 13 7 6 5 2 3 3 6 5 0 0 0 0 0 3 8 7 11 13 310 777 1697 2617 2512 2696 2682
4 6 0 0 0 0 0 0 0 0 0 523 428 61 23 76 8 20 14 7 4 2 0 0 0 0 0 0 6 0 0 0 0 0 3 3 6 7 71 245 905 2063 2545 2787
18 50 11 5 7 0 0 0 0 0 0 378 412 274 83 9 0 0 0 0 0 0 0 0 0 0 0 0 0 0 1 0 0 0 0 0 0 0 0 0 31 71 640 2159
0 1 16 9 2 6 0 0 0 0 0 181 304 82 5 0 0 0 0 0 0 0 0 0 0 0 0 0 0 0 0 7 0 0 2 2 0 0 0 0 0 0 15 264
0 0 0 35 26 6 6 0 0 0 12 8 51 43 3 0 0 0 0 0 0 0 0 0 0 0 0 0 0 0 0 0 0 0 1 4 10 3 0 0 0 0 4 76
0 0 0 6 36 73 0 0 0 0 69 14 6 0 1 1 1 0 0 0 0 0 0 0 0 0 0 0 0 0 0 0 0 0 0 1 2 2 12 10 9 1 0 10
15 4 3 0 40 81 0 0 0 37 42 0 2 1 1 0 0 0 0 0 0 0 0 0 0 0 0 0 0 0 2 5 3 2 0 0 4 0 0 2 0 0 0 11
138 94 228 163 270 36 0 8 4 0 0 0 0 0 0 0 0 0 0 0 0 0 0 0 0 0 0 3 0 0 9 9 18 9 3 1 0 0 0 0 0 0 0 73
45 0 104 153 226 102 5 6 0 0 0 0 0 0 0 0 0 0 0 0 0 0 0 0 0 0 0 1 1 6 15 19 18 16 19 6 0 0 0 0 0 0 0 0
235 49 4 49 22 9 2 0 0 0 0 0 0 0 0 0 0 0 0 0 0 0 0 0 1 3 6 4 4 5 17 10 12 14 12 6 0 0 1 4 3 0 0 0
19 3 227 177 23 39 25 1 0 0 0 0 0 0 0 0 0 0 0 0 0 0 0 2 2 3 6 7 10 15 14 18 12 10 5 4 1 0 0 0 0 0 0 0
CIN
0 0 0 0 0 -31 -5 -1 -6 -74 -23 -8 -18 -16 -1 -13 -23 -12 -2 -5 -8 -11 -1 0 -2 -2 -1 -6 -2 -1 -9 -8 -7 -7 -37 -10 -33 -13 -9 -81 -98 -13 -7 -31
0 0 0 0 0 0 -20 -3 -18 -172 -116 -240 -14 -3 0 -5 -51 -68 -52 -8 -6 -20 -6 -9 -4 -1 -1 -3 -2 -3 -6 -7 -4 -10 -11 -17 -56 -21 -17 -37 -6 -4 -10 -1
0 0 0 0 0 0 0 -8 -12 -61 -144 -85 -114 -2 0 -13 -2 -21 -7 -14 -9 -14 -5 -4 -1 -5 -2 -8 -2 -3 -4 -8 -13 -6 -26 -158 -137 -199 -67 -9 -5 -8 -7 0
0 0 0 0 0 0 0 -20 -25 -123 0 -2 -10 -2 0 -4 -5 -2 -1 -41 -20 -16 -32 -3 -5 -12 -1 -10 -10 -3 -2 -9 -19 -5 -12 -25 -71 -93 -37 -17 -38 -16 -12 -1
0 0 0 0 0 0 0 -2 -16 -8 -2 -13 -1 -11 -40 0 -2 -2 -1 -21 -34 -55 -11 -4 -4 -12 -5 -8 -16 -4 -2 -3 -10 -13 -13 -4 -21 -124 -198 -100 -54 -16 -21 -3
0 0 0 0 0 0 -45 -9 -3 -9 -18 -1 0 -5 -13 -134 -18 -8 -1 -3 -4 -5 -37 -8 -19 -67 -58 -23 -18 -4 -2 -3 -3 -7 -13 -27 -21 -124 -58 -27 -18 -19 -16 -5
0 0 0 0 0 0 0 -2 -1 0 0 0 -13 -8 -31 -30 -29 -19 -4 -2 0 -6 -2 -15 -29 -41 -37 -21 -27 -12 -5 -1 -2 -2 -1 -3 -14 -10 -73 -60 -138 -41 -116 -15
0 -1 0 0 0 0 0 -9 -1 -1 0 0 -6 -27 -42 0 -31 -160 -3 -6 -166 -199 -11 -4 -25 -5 -14 -27 -28 -19 -28 -4 -2 -1 -2 -2 -3 -15 -11 -16 -34 -99 -66 -82
-2 -1 -1 -1 -4 -5 -1 0 -4 -1 -3 -1 -52 -53 -47 -11 -99 -127 -69 -30 -13 -82 -14 -7 -3 -7 -17 -20 -24 -24 -42 -30 -13 -5 -1 -1 -1 -7 -9 -10 -13 -9 -62 -158
-18 -16 -1 0 0 0 -4 -1 -5 -3 -1 -2 -48 -72 -1 -21 -209 -239 -230 -262 -136 -73 -51 -84 -105 -39 -27 -21 -219 -11 -34 -37 -21 -6 -1 0 0 -3 -11 -10 -32 -2 -56 -149
-2 -34 -5 0 0 0 0 0 0 -2 -1 -3 0 -2 -13 -4 -153 -196 -237 -214 -165 -197 -154 -173 -98 -41 -92 -179 -337 -190 -64 -31 -9 -1 -2 -2 -2 -1 -3 -9 -3 -8 -3 -113
-34 -19 -26 0 0 0 -1 -9 -50 -15 -19 -44 -76 -12 -34 -46 -103 -153 -225 -262 -11 0 0 0 0 -162 -141 -16 -99 -6 -8 -117 -28 -3 -3 -3 -4 -2 -2 -3 -3 -3 -6 -5
0 -50 -2 0 0 0 0 0 -13 -19 -5 -53 -41 -19 -40 -5 -126 -161 0 0 0 0 0 0 0 0 0 -83 0 -68 -32 -82 -139 -46 -2 -1 -1 -1 -2 -7 -5 -3 -3 -4
0 0 -23 -26 -12 0 0 0 0 0 0 -3 -37 -3 -15 -45 -170 -186 0 0 0 -1 -1 0 0 0 0 0 0 0 -45 -75 -69 -122 -17 -84 -10 -4 -2 -7 -8 -5 -4 -4
0 0 0 -59 0 0 0 0 0 0 0 -16 -1 -8 -13 -72 -158 -127 0 0 0 0 0 0 0 0 0 0 0 0 0 0 0 -1 -38 -138 -341 -54 -2 -8 -21 -5 -3 -3
0 0 0 0 0 0 0 0 0 0 0 -10 -84 -22 -41 -22 -71 0 0 0 0 0 0 0 0 0 0 0 0 0 0 0 0 0 0 -230 -32 -48 -95 -39 -8 -3 -6 -11
-3 -1 0 -1 -1 0 0 0 0 0 0 -17 -23 -85 -27 -1 -34 -2 0 0 0 0 0 0 0 0 0 0 0 0 0 0 0 0 0 0 0 0 -196 -137 -40 -1 -1 -2
-8 -4 -4 -1 -1 0 0 0 0 0 0 0 -14 -11 -13 -11 0 0 0 0 0 0 0 0 0 0 0 0 0 0 0 0 0 0 0 0 0 0 0 0 -229 -196 -83 0
0 -1 -1 -1 -1 -2 0 0 0 0 0 -1 -8 -17 -38 0 0 0 0 0 0 0 0 0 0 0 0 0 0 0 0 -1 0 0 0 -5 0 0 0 0 0 0 -37 -129
0 0 0 -1 -1 -1 -13 0 0 0 0 -7 -7 -4 -3 0 0 0 0 0 0 0 0 0 0 0 0 0 0 0 0 0 0 0 0 0 0 0 -1 0 0 0 0 -177
0 0 0 -1 -1 -1 -2 0 0 0 -11 -23 -6 0 -1 -1 -7 0 0 0 0 0 0 0 0 0 0 0 0 0 0 0 0 0 0 0 0 -1 0 0 0 0 0 -223
0 0 -10 -1 -1 -1 -4 0 0 -64 -86 0 -5 -1 -11 0 0 0 0 0 0 0 0 0 0 0 0 0 0 0 0 0 0 0 0 0 0 0 0 0 0 0 0 -116
-2 -6 -4 -14 -13 -41 0 -26 -85 0 0 0 0 0 0 0 0 0 0 0 0 0 0 0 0 0 0 -1 0 0 -1 -1 0 0 0 0 0 0 0 0 0 0 0 -63
-10 0 -11 -7 -3 -4 -24 -18 0 0 0 0 0 0 0 0 0 0 0 0 0 0 0 0 0 0 0 0 0 0 0 0 0 0 0 0 0 0 0 0 0 0 0 0
-1 -18 -32 -14 -5 -1 -1 0 0 0 0 0 0 0 0 0 0 0 0 0 0 0 0 0 0 0 0 0 0 0 0 0 0 0 0 0 0 0 -1 -4 -2 0 0 0
0 -1 -1 -1 -4 -1 -1 -5 0 0 0 0 0 0 0 0 0 0 0 0 0 0 0 0 0 0 0 0 0 -1 0 -2 -1 0 0 0 0 0 0 0 0 0 0 0
Wind_Speed
14 13 17 21 20 20 19 19 16 3 13 14 18 22 18 19 15 15 12 10 14 12 15 15 15 15 16 14 12 8 11 9 7 4 4 3 4 2 0 4 9 5 2 13
12 18 18 19 19 21 23 16 19 14 9 12 21 17 21 21 17 14 13 15 11 12 14 16 16 16 17 15 12 9 11 9 6 6 5 3 3 1 3 5 5 4 4 3
18 15 21 19 18 22 22 18 16 7 8 12 13 15 21 19 18 22 17 12 16 13 11 17 14 15 16 16 14 11 11 10 8 6 7 6 5 5 1 6 5 5 4 4
20 18 19 17 20 17 19 12 13 12 17 14 25 11 19 22 16 18 17 13 13 17 8 18 15 9 15 17 15 12 10 12 9 6 1 9 10 4 2 4 3 5 5 4
19 16 17 17 17 18 16 17 24 25 15 16 17 9 3 13 17 17 19 17 18 15 16 20 17 14 13 17 15 14 11 12 9 7 4 3 5 2 2 4 6 4 6 4
16 15 13 11 15 13 22 14 13 16 9 13 13 11 14 6 10 15 18 15 18 18 16 18 17 11 9 16 16 15 13 11 9 9 6 6 6 2 3 5 4 7 5 5
18 20 11 12 17 19 20 13 10 10 10 12 20 16 11 16 6 29 20 21 17 15 13 17 20 19 16 17 19 17 15 13 11 11 10 9 7 6 5 6 7 5 0 5
15 12 17 15 20 16 16 19 11 16 13 12 16 11 11 14 25 7 13 9 9 18 17 19 17 20 18 13 19 20 18 14 13 11 10 8 7 4 8 9 1 5 4 2
18 12 17 13 15 7 16 17 17 16 18 15 10 19 21 18 13 9 9 13 10 26 30 21 19 20 18 16 17 19 19 17 15 14 10 10 9 9 6 6 5 2 7 6
13 9 16 11 4 7 16 11 17 15 15 14 15 18 18 18 12 7 8 12 12 19 20 9 9 7 10 9 7 8 19 18 16 14 12 11 10 10 7 5 6 3 5 1
17 13 10 12 14 14 10 12 14 17 14 10 7 7 19 19 13 10 9 10 9 15 15 13 13 9 16 15 14 14 14 18 14 13 14 13 12 12 9 6 4 4 2 11
13 9 11 14 12 18 21 13 16 13 17 7 7 4 6 16 14 12 10 12 12 15 13 13 14 12 15 15 12 3 9 15 5 15 12 13 12 11 12 9 8 6 6 4
11 9 5 14 5 6 10 15 15 14 17 6 10 8 14 13 16 12 12 14 11 14 15 13 14 14 15 13 13 10 9 12 11 6 13 13 13 12 11 12 10 8 7 7
6 9 10 6 5 15 17 16 14 12 10 6 17 18 19 16 18 12 14 15 14 14 13 13 13 13 14 11 10 9 8 7 8 14 10 10 7 13 10 8 10 9 8 8
6 8 5 12 9 12 15 18 12 10 14 12 15 19 22 17 17 13 13 15 16 16 16 14 14 12 11 11 9 8 8 6 10 10 12 15 9 13 6 2 5 6 6 8
6 8 6 10 1 10 8 6 8 7 13 9 22 9 16 18 19 14 13 14 14 15 15 15 14 13 12 11 10 9 9 9 6 11 12 9 13 13 14 12 8 4 5 5
6 6 10 10 7 4 7 5 6 9 9 18 18 10 13 19 15 14 15 13 13 14 13 13 13 13 12 12 10 9 9 10 10 10 9 9 9 8 10 10 8 8 6 6
5 8 8 9 11 10 4 7 5 11 3 10 21 22 16 15 15 14 13 11 10 11 11 11 10 10 11 11 12 10 7 6 8 9 10 9 7 8 8 8 8 9 10 8
9 6 8 10 11 7 5 2 6 5 10 11 15 8 15 17 17 9 8 10 8 8 9 9 8 8 8 9 9 8 9 9 11 11 9 6 5 7 8 8 8 7 8 8
8 6 10 10 11 11 9 12 8 3 10 12 13 15 14 16 10 10 9 8 8 7 7 7 6 7 9 8 9 8 8 8 9 9 9 9 7 9 8 6 8 8 7 7
6 5 10 10 8 3 11 6 2 8 2 16 13 12 13 8 10 14 11 7 4 4 6 5 6 6 7 8 8 7 8 8 9 8 9 8 8 8 6 5 5 6 7 7
6 5 6 8 9 8 11 6 3 7 8 8 7 11 17 13 11 9 7 6 2 3 4 5 5 7 7 8 8 8 7 8 8 8 9 9 9 8 7 6 6 9 7 7
4 7 5 9 4 7 8 13 11 11 10 8 9 7 7 8 7 6 6 5 6 7 7 7 8 7 8 11 11 11 11 11 10 8 9 9 10 9 8 7 8 7 8 6
5 4 4 3 6 5 7 7 9 7 9 7 6 8 6 7 8 8 7 5 7 6 4 5 4 6 7 8 10 11 11 12 13 12 10 8 9 9 9 8 8 6 6 8
7 4 4 7 4 4 5 4 5 7 9 9 8 9 7 9 7 7 7 6 5 4 5 5 6 5 5 7 9 11 12 14 13 13 13 11 8 9 8 8 6 6 7 6
6 8 4 5 8 6 5 10 10 9 8 10 8 9 8 6 8 6 7 5 6 2 4 5 6 6 6 6 8 8 9 8 10 13 11 11 11 10 10 9 10 10 12 13
Wind_Direction
204 218 214 215 213 236 218 218 178 17 131 158 143 139 156 155 164 166 177 170 160 165 166 165 164 160 148 148 155 177 136 146 141 187 151 165 176 127 98 121 186 145 175 132
180 222 218 231 224 235 256 260 124 154 92 43 136 159 163 159 171 184 204 173 175 172 179 165 170 169 159 150 161 164 143 152 190 194 173 152 59 113 182 173 183 144 181 133
219 213 236 211 227 224 238 243 165 165 106 239 148 196 159 180 179 176 191 189 186 196 200 166 182 168 160 154 164 167 157 163 210 216 117 83 39 306 242 149 180 165 174 182
234 236 201 224 233 222 227 236 119 129 183 174 189 140 180 167 182 168 181 186 183 204 239 165 175 171 177 157 162 165 170 168 212 232 75 160 170 196 202 180 152 157 182 161
220 230 203 223 223 214 235 168 180 210 214 215 196 111 128 27 173 161 174 182 195 215 215 177 170 177 190 157 164 163 176 170 196 210 161 207 106 210 63 301 146 207 147 171
240 221 219 217 237 224 240 270 159 245 220 232 204 279 154 170 260 180 171 194 194 198 200 175 175 177 226 162 166 161 173 182 195 195 171 224 141 197 211 181 181 192 173 168
226 225 206 217 218 232 228 239 198 209 220 240 190 204 103 107 263 256 179 182 188 204 207 190 176 183 203 175 167 158 172 181 195 187 197 200 207 166 118 179 219 143 132 183
212 197 205 202 219 213 216 233 212 204 221 230 249 141 169 163 151 289 106 149 62 306 229 199 196 186 192 196 169 163 168 178 187 193 201 200 218 207 185 214 180 152 145 282
199 216 183 209 231 328 199 241 254 222 227 231 110 108 151 138 100 88 89 51 160 215 226 203 202 180 189 200 173 169 168 175 184 196 196 198 204 232 219 193 186 176 128 126
289 302 161 183 312 245 274 232 240 247 265 254 134 158 150 142 120 101 70 50 15 30 31 39 11 268 178 220 49 173 168 174 182 194 198 200 202 213 231 252 171 191 108 169
284 147 183 198 210 227 218 247 252 264 256 235 171 58 130 118 126 124 94 72 46 53 38 53 69 58 58 37 32 328 310 168 184 196 192 198 200 202 215 223 195 188 156 151
285 305 162 192 215 223 248 240 235 240 249 77 95 333 6 114 115 105 96 78 66 76 61 59 61 67 73 54 54 280 306 30 262 194 198 195 188 201 193 207 203 190 178 217
334 245 213 158 180 233 236 240 266 270 267 165 152 145 156 119 107 93 88 83 65 71 71 56 62 59 64 74 58 38 23 27 311 305 195 190 192 197 201 191 198 194 189 189
297 293 17 345 353 205 215 237 238 266 281 320 112 147 120 122 111 107 98 92 86 79 79 79 60 56 57 52 67 51 51 21 316 3 332 25 203 191 201 190 190 196 190 192
308 297 331 177 311 328 204 222 226 246 266 76 137 153 138 130 115 118 101 93 90 87 83 77 83 78 69 74 76 81 60 41 7 7 18 26 13 331 166 173 193 195 185 201
259 290 321 284 157 325 349 78 26 246 267 131 70 102 110 128 133 124 113 98 92 85 77 74 67 69 66 69 67 60 71 67 39 49 28 5 24 355 22 16 345 258 227 253
280 271 273 255 240 229 271 251 182 264 290 129 139 170 130 145 125 122 117 106 94 83 75 71 61 53 49 43 46 73 64 58 54 64 63 38 29 2 9 10 353 354 287 273
217 264 265 262 249 223 254 8 266 215 182 57 134 150 151 118 101 97 101 99 90 86 77 67 62 56 50 44 33 9 72 74 59 48 50 63 40 26 7 353 2 349 349 332
269 262 248 254 235 235 182 227 236 202 142 114 131 131 110 117 107 107 90 98 89 85 80 65 52 64 61 35 45 7 24 39 37 29 29 33 38 21 10 7 349 343 338 330
276 204 274 262 250 257 19 85 14 274 174 142 135 127 140 141 179 150 144 123 98 69 68 50 47 41 53 22 28 8 26 26 29 15 6 5 13 4 346 351 346 334 316 302
235 253 234 240 252 192 112 84 346 202 65 134 149 159 158 121 61 113 120 108 91 63 58 27 29 35 39 23 10 6 6 17 7 357 346 348 354 336 335 355 318 302 311 307
205 212 243 251 254 234 123 151 243 74 82 102 101 121 97 108 118 120 108 106 89 50 25 31 21 20 9 15 6 0 358 360 346 338 331 334 328 328 327 314 311 306 285 284
296 26 341 9 60 77 42 91 116 113 106 96 108 107 115 139 141 128 123 108 89 61 43 25 17 -0 13 21 5 352 353 342 331 322 319 320 314 304 294 307 299 290 292 246
230 303 294 355 122 128 93 93 98 112 139 130 134 126 172 151 133 134 120 101 74 65 39 25 36 13 4 360 353 342 346 347 335 319 307 297 301 299 292 279 280 286 297 318
287 8 316 274 250 124 133 161 143 122 127 141 134 150 148 138 142 130 122 109 86 61 46 34 19 11 351 6 350 345 356 351 335 331 322 313 295 289 292 280 283 298 304 273
223 252 205 257 289 266 225 175 163 158 170 150 161 143 151 166 142 144 132 122 93 48 37 22 14 10 8 352 358 2 344 345 334 330 320 331 327 319 318 311 304 288 262 263